Location: Torino
(45.0500°N, 7.6670°E)
Time: 23:33:00
(UTC+01:00)

ISS - Visible Passes

Search period start: 18 January 2019 00:00
Search period end: 28 January 2019 00:00
Orbit: 404 x 410 km, 51.6° (Epoch: 18 January)

Date Brightness Start Highest point End Pass type
(mag) Time Alt. Az. Time Alt. Az. Time Alt. Az.
21 Jan -1.4 18:45:14 10° SSE 18:46:01 11° SE 18:46:01 11° SE visible
22 Jan -2.2 19:27:58 10° SW 19:29:52 29° SSW 19:29:52 29° SSW visible
23 Jan -2.5 18:37:04 10° SSW 18:39:52 26° SE 18:40:53 22° ESE visible
23 Jan -0.6 20:12:59 10° WSW 20:13:37 15° W 20:13:37 15° W visible
24 Jan -3.7 19:21:29 10° WSW 19:24:32 73° W 19:24:32 73° W visible
25 Jan -3.6 18:30:10 10° SW 18:33:24 58° SE 18:35:23 21° ENE visible
25 Jan -0.9 20:07:02 10° W 20:08:06 18° WNW 20:08:06 18° WNW visible
26 Jan -3.2 19:15:21 10° W 19:18:33 45° NNW 19:18:52 43° N visible
27 Jan -3.6 18:23:45 10° WSW 18:27:02 68° NNW 18:29:36 16° NE visible
27 Jan -1.1 20:01:06 10° WNW 20:02:19 18° NW 20:02:19 18° NW visible
